This demonstration page uses our WeatherBlox Daily Observations layout. Learn more.

Left ArrowRight Arrow

36.17497, -115.13722

Hourly Observations for April 25, 2016

Temp ( °F °C ) Dew Point ( °F °C ) Humidity (%) Winds ( mph kmh ) Pressure ( in mb ) Visibility ( mi km ) Precip ( " mm )
12:53 am 00:53 Clear 65 18.3 25 -3.9 22 22 WSW 15 24 29.6 1002 10 16.0934 0 0
1:53 am 01:53 Clear 64 17.8 26 -3.3 24 24 WSW 30 48 29.57 1002 10 16.0934 0 0
2:53 am 02:53 Clear 61 16.1 30 -1.1 31 31 SW 20 31 29.57 1001 10 16.0934 0 0
3:18 am 03:18 Mostly Cloudy 61 16 34 1 36 36 NNW 12 19 29.59 1002 10 16.0934 0 0
3:53 am 03:53 Clear 59 15 34 1.1 39 39 NW 25 41 29.6 1002 10 16.0934 0 0
4:53 am 04:53 Partly Cloudy 57 13.9 35 1.7 44 44 NW 20 31 29.6 1002 10 16.0934 0 0
5:53 am 05:53 Cloudy 55 12.8 34 1.1 45 45 NNW 30 48 29.6 1002 10 16.0934 0 0
6:53 am 06:53 Cloudy 53 11.7 35 1.7 51 51 NW 35 56 29.63 1003 10 16.0934 0 0
7:53 am 07:53 Mostly Cloudy 53 11.7 36 2.2 52 52 NW 24 39 29.63 1003 10 16.0934 0 0.0254
8:53 am 08:53 Mostly Cloudy 53 11.7 38 3.3 57 57 NNW 18 30 29.65 1004 10 16.0934 0 0
9:53 am 09:53 Mostly Cloudy 56 13.3 39 3.9 53 53 VRB 3 6 29.66 1004 10 16.0934 0 0
10:53 am 10:53 Cloudy 58 14.4 37 2.8 46 46 SSW 12 19 29.66 1004 10 16.0934 0 0
11:53 am 11:53 Cloudy 59 15 33 0.6 38 38 ESE 12 19 29.66 1005 10 16.0934 0 0
12:53 pm 12:53 Cloudy with Light Rain 57 13.9 38 3.3 49 49 N 8 13 29.68 1005 10 16.0934 0 0.0254
1:53 pm 13:53 Cloudy with Light Rain 57 13.9 38 3.3 49 49 SW 10 17 29.68 1005 7 11.26538 0.01 0.254
2:53 pm 14:53 Sunny 60 15.6 39 3.9 46 46 NNW 9 15 29.67 1005 10 16.0934 0.01 0.254
3:14 pm 15:14 Sunny 61 16 36 2 39 39 NNW 13 20 29.62 1003 10 16.0934 0 0
3:53 pm 15:53 Mostly Cloudy 60 15.6 33 0.6 36 36 NNW 16 26 29.68 1005 10 16.0934 0 0
4:53 pm 16:53 Mostly Cloudy 60 15.6 33 0.6 36 36 NNW 14 22 29.7 1006 10 16.0934 0 0
5:53 pm 17:53 Mostly Cloudy 61 16.1 33 0.6 35 35 N 17 28 29.71 1006 10 16.0934 0 0
6:53 pm 18:53 Cloudy 59 15 33 0.6 38 38 NNW 16 26 29.74 1007 10 16.0934 0 0
7:53 pm 19:53 Cloudy 58 14.4 33 0.6 39 39 NNW 16 26 29.77 1008 10 16.0934 0 0
8:53 pm 20:53 Mostly Cloudy 58 14.4 33 0.6 39 39 NNE 6 9 29.78 1009 10 16.0934 0 0
9:53 pm 21:53 Clear 58 14.4 33 0.6 39 39 W 7 11 29.79 1009 10 16.0934 0 0
10:53 pm 22:53 Mostly Clear 57 13.9 33 0.6 41 41 W 7 11 29.78 1009 10 16.0934 0 0
11:53 pm 23:53 Mostly Clear 59 15 33 0.6 38 38 NNW 18 30 29.79 1009 10 16.0934 0 0

Powered by AerisWeather